Regional Weather Roundup
Issued by NWS Cleveland, OH

Home | Current Version | Previous Version | Text Only | Print | Product List | Glossary Off
Versions: 1 2 3 4 5 6 7 8 9 10 11 12 13 14 15 16 17 18 19 20 21 22 23 24 25 26 27 28 29 30 31 32 33 34 35 36 37 38 39 40 41 42 43 44 45 46 47 48 49 50

000
ASUS41 KCLE 192112
RWRCLE
OHIO REGIONAL WEATHER ROUNDUP
NATIONAL WEATHER SERVICE WILMINGTON, OH
400 PM EST SUN FEB 19 2017

NOTE: "FAIR" INDICATES FEW OR NO CLOUDS BELOW 12,000 FEET WITH NO
SIGNIFICANT WEATHER AND/OR OBSTRUCTIONS TO VISIBILITY.

OHZ001>008-015>018-024>027-034-035-043-044-192200-
   NORTHWEST OHIO

CITY           SKY/WX    TMP DP  RH WIND       PRES   REMARKS
DEFIANCE       FAIR      64  29  26 W8        30.05R
FINDLAY        FAIR      64  34  32 NW10      30.04R
TOLEDO EXPRESS FAIR      64  29  26 W9        30.04R
TOLEDO EXEC    FAIR      65  32  29 W14       30.04R
LIMA           FAIR      63  37  38 W10       30.06R
$$

OHZ009>014-019>023-028>033-038-089-192200-
   NORTHEAST OHIO

CITY           SKY/WX    TMP DP  RH WIND       PRES   REMARKS
CLE-HOPKINS    FAIR      62  30  29 W16       30.05R
CLE-LAKEFRONT  FAIR      47  37  68 VRB3      30.03R
CUY CO. ARPT   SUNNY     57  39  51 NW14      30.03R
LORAIN-ELYRIA  FAIR      62  32  32 NW12      30.03R
ASHTABULA      FAIR      55  33  43 W13       30.02R
AKRON-CANTON   FAIR      63  32  31 W13       30.02R
WOOSTER        FAIR      61  37  41 W12       30.03R
MANSFIELD      FAIR      61  33  35 W13       30.04R
YOUNGSTOWN     FAIR      62  32  32 NW15      30.00R
$$

OHZ042-051>053-060>062-070>072-077>081-192200-
  SOUTHWEST OHIO

CITY           SKY/WX    TMP DP  RH WIND       PRES   REMARKS
CINC-COVINGTON FAIR      60  47  61 CALM      30.10R
CINC-LUNKEN    FAIR      59  48  67 SW6       30.11R
HAMILTON       FAIR      60  47  61 W5        30.11R
DAYTON         FAIR      59  45  59 SW8       30.09R
WRIGHT-PAT AFB FAIR      57  47  69 SW7       30.09R
DAYTON GENERAL FAIR      54  45  71 SW6       30.10R
WILMINGTON     FAIR      56  46  69 VRB6      30.09R
$$

OHZ036-037-039>041-045>050-054>059-063>069-073>076-082>088-192200-
  CENTRAL AND SOUTHEAST OHIO

CITY           SKY/WX    TMP DP  RH WIND       PRES   REMARKS
COLUMBUS       FAIR      55  45  68 S9        30.08R
OSU AIRPORT    FAIR      58  46  64 SW9       30.07R
BOLTON FIELD   SUNNY     55  46  71 SW9       30.08R
RICKENBACK AFB FAIR      53  46  76 SW8       30.08S
NEWARK         FAIR      54  44  69 SW9       30.07R
MARION         FAIR      64  32  30 NW13      30.06R
LANCASTER      PTSUNNY   55  46  71 SW12      30.10R
ZANESVILLE     FAIR      56  43  61 W13       30.06R
NEW PHILLY     FAIR      64  37  36 NW9       30.02R
$$




USA.gov is the U.S. government's official web portal to all federal, state and local government web resources and services.